Home > Weather > Sarpsborg > Past weeks

Flag for Norway Weather for the Past 2 Weeks in Sarpsborg, Norway

Now
46 °F

Passing clouds.


Feels Like: 45 °F
Forecast: 44 / 54 °F
Wind: 3 mph from West

Location: Rygge

Current Time: May 4, 2016 at 11:10:31 AM

Latest Report: May 4, 2016 at 9:50 AM


Visibility: N/A

Pressure: 30.27 "Hg

Humidity: 87%

Dew Point: 43 °F

Location of SarpsborgLocation

Historic Weather in Sarpsborg — Graph

°F

Sarpsborg Temperature Yesterday

Maximum temperature yesterday: 50 °F (at 5:20 PM)
Minimum temperature yesterday: 41 °F (at 11:20 PM)
Average temperature yesterday: 47 °F

High & Low Weather Summary for the Past Weeks

 TemperatureHumidityPressure
High57 °F (Apr 19, 4:20 PM)100% (Apr 25, 12:50 AM)30.27 "Hg (Apr 25, 12:50 AM)
Low28 °F (Apr 23, 5:20 AM)24% (Apr 22, 4:50 PM)29.62 "Hg (Apr 25, 12:50 PM)
Average43 °F68%29.94 "Hg
* Reported Apr 19 9:50 AM — May 4 9:50 AM, Sarpsborg, Weather by CustomWeather, © 2016

Note: Actual official high and low records may vary slightly from our data, if they occured in-between our weather recording intervals... More about our weather records

Advertising

Sarpsborg Weather History for the Previous 24 Hours

Scroll right to see more
 ConditionsComfort  
Time TempWeatherWind HumidityBarometerVisibility
9:50 AM
Wed, May 4
46 °FPassing clouds.3 mph87%30.27 "HgN/A
9:20 AM45 °FSunny.No wind93%30.27 "Hg10 mi
8:50 AM41 °FQuite cool.1 mph100%30.27 "Hg4 mi
8:20 AM39 °FFog.No wind100%30.27 "Hg0 mi
7:50 AM37 °FFog.No wind100%30.24 "Hg0 mi
6:50 AM36 °FFog.2 mph100%30.21 "Hg0 mi
6:20 AM37 °FFog.1 mph100%30.21 "Hg0 mi
5:50 AM37 °FFog.2 mph100%30.21 "Hg0 mi
4:50 AM37 °FFog.1 mph100%30.18 "Hg0 mi
4:20 AM39 °FFog.2 mph100%30.18 "Hg0 mi
3:50 AM39 °FLight snow. Low clouds.2 mph100%30.18 "Hg0 mi
3:20 AM39 °FLight snow. Low clouds.2 mph100%30.15 "Hg0 mi
2:50 AM39 °FLight rain. Low clouds.2 mph100%30.15 "Hg0 mi
2:20 AM39 °FFog.2 mph100%30.15 "Hg0 mi
1:50 AM39 °FFog.3 mph100%30.15 "Hg0 mi
1:20 AM37 °FFog.2 mph100%30.12 "Hg0 mi
12:50 AM39 °FChilly.3 mph100%30.12 "Hg0 mi
11:50 PM
Tue, May 3
41 °FQuite cool.5 mph100%30.09 "Hg3 mi
11:20 PM41 °FPassing clouds.5 mph100%30.09 "Hg4 mi
10:50 PM43 °FPassing clouds.3 mph100%30.09 "Hg6 mi
10:20 PM43 °FClear.6 mph93%30.07 "Hg10 mi
9:50 PM43 °FPassing clouds.5 mph93%30.07 "HgN/A
9:20 PM45 °FSunny.7 mph93%30.04 "Hg10 mi
8:50 PM46 °FSunny.8 mph87%30.04 "Hg10 mi
8:20 PM48 °FSunny.10 mph82%30.04 "Hg10 mi
7:50 PM48 °FScattered clouds.14 mph82%30.01 "HgN/A
7:20 PM48 °FScattered clouds.14 mph82%30.01 "HgN/A
6:50 PM48 °FScattered clouds.13 mph82%30.01 "HgN/A
6:20 PM50 °FSunny.15 mph82%30.01 "Hg10 mi
5:50 PM48 °FPassing clouds.14 mph87%30.01 "HgN/A
5:20 PM50 °FScattered clouds.15 mph82%30.01 "HgN/A
4:50 PM48 °FScattered clouds.15 mph87%30.01 "HgN/A
4:20 PM48 °FPassing clouds.14 mph87%29.98 "HgN/A
3:50 PM48 °FPartly sunny.14 mph87%29.98 "HgN/A
3:20 PM48 °FBroken clouds.14 mph87%29.98 "HgN/A
2:50 PM48 °FDrizzle. Broken clouds.17 mph87%29.95 "HgN/A
2:20 PM48 °FDrizzle. Partly sunny.14 mph94%29.95 "HgN/A
1:20 PM48 °FDrizzle. More clouds than sun.14 mph87%29.95 "HgN/A
12:50 PM48 °FLight rain. Overcast.13 mph87%29.95 "HgN/A
12:20 PM48 °FOvercast.13 mph87%29.95 "HgN/A
11:50 AM48 °FDrizzle. Overcast.13 mph87%29.95 "HgN/A
11:20 AM48 °FLight rain. Partly sunny.12 mph87%29.95 "HgN/A
Weather by CustomWeather, © 2016

See weather overviewHow to use our weather pages